Location: Bailleul
(50.3375°N, 2.8513°E)
Time: 22:02:10
(UTC+00:00)

Cosmos 2016 Rocket - Pass Details

Date: 23 October 2021
Orbit: 947 x 1000 km, 83.0° (Epoch: 02 December)

Event Time Altitude Azimuth Distance (km) Brightness Sun altitude
Exits shadow 18:59:48 19° 38° (NE) 2,120 5.5 -22.8°
Drops below altitude 10° 19:01:43 10° 26° (NNE) 2,696 6.2 -23.1°
Sets 19:04:27 0° 17° (NNE) 3,641 6.9 -23.5°
